Hebron, NE

7:08 AM CST on December 08, 2019 (GMT -0600)
Hebron Municipal

Weather History for KHJH - September, 2019

Change the Weather History Date:

Wednesday, September 18, 2019

  Actual Average Record
Temperature  
Mean Temperature 82 °F -  
Max Temperature 93 °F 78 °F 100 °F (1953)
Min Temperature 72 °F 53 °F 36 °F (1973)
Cooling Degree Days 17    
Growing Degree Days 32 (Base 50)    
Moisture  
Dew Point 66 °F    
Average Humidity 61    
Maximum Humidity 81    
Minimum Humidity 41    
Precipitation  
Precipitation 0.00 in - - ()
Sea Level Pressure  
Sea Level Pressure 29.91 in    
Wind  
Wind Speed 10 mph (South)    
Max Wind Speed 13 mph    
Max Gust Speed 20 mph    
Visibility 10 miles    
Events      
Averages and records for this station are not official NWS values.
T = Trace of Precipitation, MM = Missing Value Source: NWS Daily Summary

Daily Weather History Graph

Daily Weather History Graph

Search for Another Location

Airport or City:

Astronomy

Sep. 18, 2019 Rise Set
Actual Time 7:13 AM CDT 7:34 PM CDT
Civil Twilight 6:46 AM CDT 8:01 PM CDT
Nautical Twilight 6:14 AM CDT 8:33 PM CDT
Astronomical Twilight 5:42 AM CDT 9:05 PM CDT
Moon 10:09 PM CDT (9/18) 11:18 AM CDT (9/18)
Length of Visible Light 13h 14m
Length of Day
12h 20m
Waning Gibbous, 82% of the Moon is Illuminated
Sep 18
Waning Gibbous
Sep 21
Last Quarter
Sep 28
New
Oct 5
First Quarter
Oct 13
Full

Hourly Weather History & Observations

Time (CDT) Temp. Heat Index Dew Point Humidity Pressure Visibility Wind Dir Wind Speed Gust Speed Precip Events Conditions
12:15 AM 77.9 °F - 65.5 °F 65% 29.89 in 10.0 mi South 12.7 mph 18.4 mph N/A   Clear
12:35 AM 77.4 °F - 65.7 °F 67% 29.89 in 10.0 mi South 11.5 mph 16.1 mph N/A   Clear
12:55 AM 77.4 °F - 66.0 °F 68% 29.89 in 10.0 mi South 12.7 mph 17.3 mph N/A   Clear
1:15 AM 77.2 °F - 66.2 °F 69% 29.89 in 10.0 mi South 11.5 mph 19.6 mph N/A   Clear
1:55 AM 77.0 °F - 66.2 °F 69% 29.90 in 10.0 mi South 8.1 mph 16.1 mph N/A   Clear
2:15 AM 76.6 °F - 66.2 °F 70% 29.91 in 10.0 mi South 10.4 mph - N/A   Clear
2:35 AM 76.1 °F - 66.4 °F 72% 29.90 in 10.0 mi South 10.4 mph 16.1 mph N/A   Clear
2:55 AM 75.6 °F - 66.6 °F 74% 29.90 in 10.0 mi South 10.4 mph - N/A   Clear
3:15 AM 75.2 °F - 66.4 °F 74% 29.90 in 10.0 mi South 11.5 mph 17.3 mph N/A   Clear
3:35 AM 74.8 °F - 66.4 °F 75% 29.90 in 10.0 mi South 9.2 mph - N/A   Clear
3:55 AM 74.8 °F - 66.6 °F 75% 29.90 in 10.0 mi South 9.2 mph - N/A   Clear
4:15 AM 74.3 °F - 66.6 °F 77% 29.90 in 10.0 mi SSE 10.4 mph - N/A   Clear
4:55 AM 73.8 °F - 66.4 °F 78% 29.89 in 10.0 mi South 8.1 mph - N/A   Clear
5:15 AM 73.4 °F - 66.4 °F 79% 29.90 in 10.0 mi South 9.2 mph - N/A   Clear
5:35 AM 73.0 °F - 66.4 °F 80% 29.90 in 10.0 mi South 9.2 mph - N/A   Clear
5:55 AM 72.9 °F - 66.4 °F 80% 29.90 in 10.0 mi South 8.1 mph - N/A   Clear
6:15 AM 72.9 °F - 66.2 °F 80% 29.90 in 10.0 mi South 6.9 mph - N/A   Clear
6:35 AM 73.0 °F - 66.4 °F 80% 29.90 in 10.0 mi South 6.9 mph - N/A   Clear
6:55 AM 72.9 °F - 66.4 °F 80% 29.90 in 10.0 mi South 5.8 mph - N/A   Clear
7:15 AM 72.5 °F - 66.2 °F 81% 29.90 in 10.0 mi South 8.1 mph - N/A   Clear
7:35 AM 72.5 °F - 66.4 °F 81% 29.90 in 10.0 mi South 9.2 mph - N/A   Clear
7:55 AM 72.7 °F - 66.4 °F 81% 29.91 in 10.0 mi South 8.1 mph - N/A   Clear
8:15 AM 73.8 °F - 66.7 °F 79% 29.92 in 10.0 mi SSW 6.9 mph - N/A   Scattered Clouds
8:35 AM 75.2 °F - 66.7 °F 75% 29.93 in 10.0 mi SSW 9.2 mph 17.3 mph N/A   Scattered Clouds
8:55 AM 75.7 °F - 67.1 °F 74% 29.93 in 10.0 mi SSW 8.1 mph - N/A   Mostly Cloudy
9:15 AM 75.7 °F - 67.1 °F 74% 29.94 in 10.0 mi Calm Calm - N/A   Scattered Clouds
9:35 AM 77.9 °F - 67.3 °F 70% 29.93 in 10.0 mi SSW 6.9 mph - N/A   Scattered Clouds
9:55 AM 79.0 °F - 67.3 °F 67% 29.93 in 10.0 mi SW 4.6 mph - N/A   Clear
10:15 AM 80.6 °F 83.1 °F 67.3 °F 64% 29.94 in 10.0 mi SSW 6.9 mph - N/A   Clear
10:35 AM 83.3 °F 85.7 °F 66.4 °F 57% 29.93 in 10.0 mi SSW 10.4 mph - N/A   Clear
10:55 AM 83.5 °F 85.7 °F 66.4 °F 56% 29.94 in 10.0 mi SSW 10.4 mph - N/A   Clear
11:15 AM 84.7 °F 87.1 °F 66.6 °F 54% 29.93 in 10.0 mi SW 9.2 mph - N/A   Clear
11:35 AM 86.4 °F 89.0 °F 66.9 °F 52% 29.94 in 10.0 mi SSW 9.2 mph - N/A   Clear
11:55 AM 86.7 °F 89.0 °F 66.2 °F 50% 29.94 in 10.0 mi SSW 11.5 mph 19.6 mph N/A   Clear
12:15 PM 87.8 °F 90.7 °F 67.3 °F 50% 29.94 in 10.0 mi SSW 11.5 mph 16.1 mph N/A   Clear
12:35 PM 87.8 °F 90.4 °F 66.6 °F 49% 29.94 in 10.0 mi SSW 8.1 mph - N/A   Clear
12:55 PM 88.9 °F 91.4 °F 66.2 °F 47% 29.94 in 10.0 mi South 10.4 mph - N/A   Clear
1:15 PM 89.8 °F 92.5 °F 66.7 °F 46% 29.93 in 10.0 mi South 8.1 mph - N/A   Clear
1:35 PM 90.3 °F 93.0 °F 66.6 °F 45% 29.93 in 10.0 mi SSW 12.7 mph 19.6 mph N/A   Clear
1:55 PM 90.5 °F 93.3 °F 66.2 °F 45% 29.92 in 10.0 mi SW 8.1 mph - N/A   Scattered Clouds
2:15 PM 91.0 °F 93.0 °F 64.9 °F 42% 29.92 in 10.0 mi SSW 8.1 mph 16.1 mph N/A   Mostly Cloudy
2:35 PM 92.3 °F 95.1 °F 66.0 °F 42% 29.92 in 10.0 mi SSW 12.7 mph 17.3 mph N/A   Scattered Clouds
2:55 PM 91.8 °F 94.2 °F 65.7 °F 42% 29.92 in 10.0 mi SSW 9.2 mph - N/A   Scattered Clouds
3:15 PM 89.8 °F 91.8 °F 65.3 °F 44% 29.92 in 10.0 mi SSW 9.2 mph - N/A   Scattered Clouds
3:35 PM 92.5 °F 95.0 °F 65.5 °F 41% 29.91 in 10.0 mi South 10.4 mph - N/A   Mostly Cloudy
3:55 PM 91.9 °F 94.5 °F 65.7 °F 42% 29.91 in 10.0 mi SSE 8.1 mph - N/A   Mostly Cloudy
4:15 PM 92.5 °F 95.0 °F 65.7 °F 41% 29.90 in 10.0 mi SSW 10.4 mph - N/A   Mostly Cloudy
4:35 PM 91.9 °F 95.0 °F 66.2 °F 43% 29.90 in 10.0 mi South 9.2 mph - N/A   Scattered Clouds
4:55 PM 91.9 °F 94.5 °F 65.7 °F 42% 29.90 in 10.0 mi South 10.4 mph - N/A   Scattered Clouds
5:15 PM 91.6 °F 93.9 °F 65.3 °F 42% 29.89 in 10.0 mi South 12.7 mph 16.1 mph N/A   Scattered Clouds
5:35 PM 90.7 °F 92.8 °F 65.3 °F 43% 29.90 in 10.0 mi South 9.2 mph 17.3 mph N/A   Clear
5:55 PM 91.0 °F 93.0 °F 65.3 °F 42% 29.89 in 10.0 mi SSE 9.2 mph - N/A   Clear
6:15 PM 88.3 °F 90.5 °F 65.5 °F 47% 29.89 in 10.0 mi South 6.9 mph - N/A   Clear
6:35 PM 88.7 °F 90.8 °F 65.7 °F 46% 29.89 in 10.0 mi South 8.1 mph - N/A   Clear
6:55 PM 88.0 °F 89.6 °F 64.9 °F 46% 29.89 in 10.0 mi SSE 8.1 mph - N/A   Clear
7:15 PM 86.0 °F 87.9 °F 65.7 °F 50% 29.89 in 10.0 mi SSE 4.6 mph - N/A   Clear
7:35 PM 83.7 °F 86.0 °F 66.2 °F 56% 29.89 in 10.0 mi SSE 4.6 mph - N/A   Clear
7:55 PM 81.3 °F 83.6 °F 66.6 °F 61% 29.90 in 10.0 mi SE 4.6 mph - N/A   Clear
8:15 PM 79.7 °F - 66.7 °F 64% 29.90 in 10.0 mi SSE 4.6 mph - N/A   Clear
8:55 PM 78.3 °F - 67.3 °F 69% 29.91 in 10.0 mi SE 5.8 mph - N/A   Clear
9:15 PM 78.8 °F - 67.1 °F 67% 29.92 in 10.0 mi SSE 6.9 mph - N/A   Clear
9:35 PM 80.4 °F 82.8 °F 67.1 °F 64% 29.93 in 10.0 mi SSE 10.4 mph - N/A   Clear
9:55 PM 80.4 °F 82.7 °F 66.7 °F 63% 29.93 in 10.0 mi SSE 9.2 mph - N/A   Clear
10:15 PM 79.9 °F - 66.6 °F 64% 29.93 in 10.0 mi South 10.4 mph - N/A   Clear
10:35 PM 79.7 °F - 66.4 °F 64% 29.93 in 10.0 mi South 11.5 mph - N/A   Clear
10:55 PM 79.7 °F - 66.6 °F 64% 29.93 in 10.0 mi South 11.5 mph - N/A   Clear
11:15 PM 79.0 °F - 66.6 °F 66% 29.93 in 10.0 mi South 9.2 mph - N/A   Mostly Cloudy
11:35 PM 78.8 °F - 66.6 °F 66% 29.94 in 10.0 mi South 6.9 mph - N/A   Mostly Cloudy
11:55 PM 78.3 °F - 66.4 °F 67% 29.94 in 10.0 mi South 9.2 mph - N/A   Mostly Cloudy